AD5L Weather Reports


time (UTC)temp
F
wind
direction
speed
knots
gust
knots
rain 1hr
in
rain 24hr
in
rain mn
in
humidity
%
barometer
mb
20260906232344 96 127 4.3 7.8 0.00 0.00 0.00 53 1011.6
20260906231327 97 133 3.5 7.0 0.00 0.00 0.00 52 1011.7
20260906230347 98 125 4.3 7.8 0.00 0.00 0.00 51 1011.7
20260906225329 98 110 2.6 8.7 0.00 0.00 0.00 51 1011.7
20260906224340 98 151 2.6 10.4 0.00 0.00 0.00 50 1011.7
20260906223332 98 229 1.7 5.2 0.00 0.00 0.00 48 1011.6
20260906222321 97 146 1.7 7.8 0.00 0.00 0.00 49 1011.7
20260906221332 97 161 2.6 7.8 0.00 0.00 0.00 49 1011.8
20260906220322 98 155 2.6 6.1 0.00 0.00 0.00 47 1012.0
20260906215332 97 276 1.7 6.1 0.00 0.00 0.00 49 1012.0
20260906214322 98 155 0.9 4.3 0.00 0.00 0.00 49 1012.0
20260906213330 97 230 1.7 6.1 0.00 0.00 0.00 49 1012.3
20260906212341 96 127 0.0 3.5 0.00 0.00 0.00 51 1012.4
20260906211332 95 121 0.0 2.6 0.00 0.00 0.00 52 1012.6
20260906210323 95 105 0.9 4.3 0.00 0.00 0.00 52 1012.7
20260906205334 96 93 0.9 4.3 0.00 0.00 0.00 50 1012.8
20260906204345 95 205 0.0 5.2 0.00 0.00 0.00 51 1012.9
20260906203335 96 136 1.7 7.0 0.00 0.00 0.00 51 1013.0
20260906202343 95 109 0.0 1.7 0.00 0.00 0.00 52 1013.1
20260906201324 94 109 0.9 3.5 0.00 0.00 0.00 52 1013.2
20260906200344 95 121 1.7 6.1 0.00 0.00 0.00 54 1013.3
20260906195325 95 120 0.9 5.2 0.00 0.00 0.00 54 1013.4
20260906194335 94 90 2.6 7.0 0.00 0.00 0.00 57 1013.5
20260906193326 94 6 4.3 8.7 0.00 0.00 0.00 55 1013.5
20260906192337 96 127 1.7 3.5 0.00 0.00 0.00 54 1013.9
20260906191328 96 70 2.6 6.1 0.00 0.00 0.00 52 1013.9
20260906190335 97 98 2.6 5.2 0.00 0.00 0.00 50 1014.0
20260906185328 95 290 0.9 3.5 0.00 0.00 0.00 52 1014.0
20260906184339 95 194 2.6 3.5 0.00 0.00 0.00 52 1014.1
20260906183330 95 133 1.7 5.2 0.00 0.00 0.00 51 1014.3
20260906182341 95 91 0.9 3.5 0.00 0.00 0.00 51 1014.4
20260906181332 95 127 0.9 7.0 0.00 0.00 0.00 53 1014.5
20260906180322 94 117 0.9 6.1 0.00 0.00 0.00 57 1014.8
20260906175333 94 229 1.7 6.1 0.00 0.00 0.00 61 1015.0
20260906174344 93 245 1.7 5.2 0.00 0.00 0.00 63 1015.2
20260906173335 92 98 2.6 7.8 0.00 0.00 0.00 64 1015.4
20260906172346 92 113 1.7 5.2 0.00 0.00 0.00 67 1015.5
20260906171327 92 145 2.6 6.1 0.00 0.00 0.00 67 1015.7
20260906170347 91 232 1.7 6.1 0.00 0.00 0.00 69 1015.8
20260906165329 90 168 3.5 5.2 0.00 0.00 0.00 68 1015.7
20260906164350 89 198 0.9 5.2 0.00 0.00 0.00 72 1015.9
20260906163330 88 101 1.7 4.3 0.00 0.00 0.00 73 1016.0
20260906162340 88 143 0.0 0.9 0.00 0.00 0.00 72 1016.0
20260906161330 87 143 0.9 2.6 0.00 0.00 0.00 73 1016.1
20260906160321 86 103 1.7 5.2 0.00 0.00 0.00 75 1016.1
20260906155331 86 102 0.9 2.6 0.00 0.00 0.00 77 1015.9
20260906154321 86 82 0.9 2.6 0.00 0.00 0.00 76 1015.9
20260906153332 87 113 0.0 3.5 0.00 0.00 0.00 75 1015.7
20260906152322 86 148 0.0 1.7 0.00 0.00 0.00 76 1015.5
20260906151333 85 83 0.9 2.6 0.00 0.00 0.00 78 1015.4
20260906150324 84 108 0.0 2.6 0.00 0.00 0.00 79 1015.3
20260906145335 84 115 0.0 1.7 0.00 0.00 0.00 80 1015.3
20260906144341 84 124 0.9 2.6 0.00 0.00 0.00 80 1015.2
20260906143332 83 142 0.9 2.6 0.00 0.00 0.00 80 1015.2
20260906142342 83 129 0.0 1.7 0.00 0.00 0.00 82 1015.2
20260906141352 82 131 0.9 2.6 0.00 0.00 0.00 83 1015.1
20260906140339 82 127 0.0 0.9 0.00 0.00 0.00 85 1015.0
20260906135349 81 127 0.0 1.7 0.00 0.00 0.00 86 1015.0
20260906134349 81 237 0.0 0.9 0.00 0.00 0.00 86 1014.8
20260906133336 81 237 0.0 0.9 0.00 0.00 0.00 86 1014.7
20260906132342 80 237 0.0 0.9 0.00 0.00 0.00 86 1014.7
20260906131350 80 237 0.0 1.7 0.00 0.00 0.00 85 1014.5
20260906130335 80 240 0.0 0.0 0.00 0.00 0.00 86 1014.4
20260906125345 80 240 0.0 0.0 0.00 0.00 0.00 86 1014.3
20260906124333 80 240 0.0 0.0 0.00 0.00 0.00 89 1014.1
20260906123333 78 240 0.0 0.0 0.00 0.00 0.00 90 1014.1
20260906122336 77 240 0.0 0.0 0.00 0.00 0.00 91 1014.0
20260906121343 77 240 0.0 0.0 0.00 0.00 0.00 92 1013.7
20260906120341 77 240 0.0 0.0 0.00 0.00 0.00 91 1013.5
20260906115343 77 240 0.0 0.0 0.00 0.00 0.00 91 1013.3
20260906114325 77 240 0.0 0.0 0.00 0.00 0.00 90 1013.1
20260906113321 77 240 0.0 0.0 0.00 0.00 0.00 90 1013.1
20260906112327 78 240 0.0 0.0 0.00 0.00 0.00 89 1013.0
20260906111332 78 240 0.0 0.0 0.00 0.00 0.00 88 1012.9
20260906110339 78 240 0.0 0.0 0.00 0.00 0.00 88 1012.8
20260906105330 79 240 0.0 0.9 0.00 0.00 0.00 86 1013.0
20260906104341 79 240 0.0 0.0 0.00 0.00 0.00 86 1012.9
20260906103331 79 240 0.0 0.9 0.00 0.00 0.00 85 1012.7
20260906102322 79 240 0.0 0.0 0.00 0.00 0.00 85 1012.7
20260906101332 80 240 0.0 0.0 0.00 0.00 0.00 84 1012.6
20260906100322 80 240 0.0 0.0 0.00 0.00 0.00 83 1012.5
20260906095332 80 240 0.0 0.9 0.00 0.00 0.00 82 1012.7
20260906094323 81 240 0.0 1.7 0.00 0.00 0.00 82 1012.6
20260906093333 81 229 0.9 2.6 0.00 0.00 0.00 82 1012.5
20260906092325 81 240 0.0 1.7 0.00 0.00 0.00 81 1012.6
20260906091335 81 254 0.0 2.6 0.00 0.00 0.00 81 1012.5
20260906090346 82 218 0.0 2.6 0.00 0.00 0.00 81 1012.5
20260906085337 82 241 0.0 1.7 0.00 0.00 0.00 81 1012.5
20260906084346 82 225 0.9 3.5 0.00 0.00 0.00 80 1012.5
20260906083327 82 150 0.9 3.5 0.00 0.00 0.00 80 1012.6
20260906082347 82 207 1.7 4.3 0.00 0.00 0.00 80 1012.5
20260906081329 83 127 0.9 5.2 0.00 0.00 0.00 80 1012.6
20260906080334 83 205 0.9 7.0 0.00 0.00 0.00 80 1012.6
20260906075324 83 238 1.7 4.3 0.00 0.00 0.00 80 1012.6
20260906074330 83 156 0.9 3.5 0.00 0.00 0.00 80 1012.9
20260906073340 83 184 2.6 5.2 0.00 0.00 0.00 80 1013.0
20260906072332 83 207 0.9 3.5 0.00 0.00 0.00 80 1013.1
20260906071322 83 208 0.9 2.6 0.00 0.00 0.00 80 1013.2
20260906070330 83 170 1.7 6.1 0.00 0.00 0.00 80 1013.3
20260906065340 83 154 1.7 4.3 0.00 0.00 0.00 80 1013.4
20260906064331 83 207 0.0 2.6 0.00 0.00 0.00 80 1013.4
20260906063338 83 146 0.9 3.5 0.00 0.00 0.00 80 1013.7
20260906062329 83 155 0.0 2.6 0.00 0.00 0.00 79 1013.5
20260906061340 83 141 0.9 3.5 0.00 0.00 0.00 79 1013.4
20260906060331 83 146 0.9 2.6 0.00 0.00 0.00 79 1013.5
20260906055323 83 161 0.0 0.9 0.00 0.00 0.00 79 1013.9
20260906054332 83 161 0.0 2.6 0.00 0.00 0.00 79 1013.8
20260906053342 83 153 0.0 2.6 0.00 0.00 0.00 78 1013.6
20260906052333 83 153 0.0 1.7 0.00 0.00 0.00 78 1013.7
20260906051344 83 119 0.0 1.7 0.00 0.00 0.00 78 1013.8
20260906050326 83 155 1.7 5.2 0.00 0.00 0.00 78 1013.8
20260906045346 84 139 1.7 5.2 0.00 0.00 0.00 77 1014.0
20260906044328 83 101 1.7 4.3 0.00 0.00 0.00 77 1014.0
20260906043339 84 141 0.9 4.3 0.00 0.00 0.00 76 1013.9
20260906042329 84 139 0.9 5.2 0.00 0.00 0.00 76 1013.8
20260906041340 84 123 0.9 3.5 0.00 0.00 0.00 75 1013.7
20260906040332 84 104 0.9 5.2 0.00 0.00 0.00 74 1013.5
20260906035322 85 92 0.9 4.3 0.00 0.00 0.00 73 1013.7
20260906034332 85 118 0.9 5.2 0.00 0.00 0.00 72 1013.7
20260906033323 85 113 3.5 9.6 0.00 0.00 0.00 71 1013.5
20260906032330 86 79 2.6 7.0 0.00 0.00 0.00 70 1013.7
20260906031340 86 99 3.5 7.0 0.00 0.00 0.00 70 1013.6
20260906030332 86 76 3.5 8.7 0.00 0.00 0.00 69 1013.4
20260906025342 87 63 4.3 8.7 0.00 0.00 0.00 67 1013.2
20260906024333 87 109 5.2 9.6 0.00 0.00 0.00 65 1012.9
20260906023343 88 77 2.6 9.6 0.00 0.00 0.00 63 1012.7
20260906022325 88 83 3.5 8.7 0.00 0.00 0.00 62 1012.6
20260906021346 88 116 3.5 8.7 0.00 0.00 0.00 61 1012.4
20260906020325 89 98 4.3 11.3 0.00 0.00 0.00 61 1012.3
20260906015345 89 86 6.1 9.6 0.00 0.00 0.00 61 1012.1
20260906014327 90 84 2.6 11.3 0.00 0.00 0.00 60 1011.9
20260906013337 90 65 3.5 9.6 0.00 0.00 0.00 59 1011.8
20260906012328 91 77 4.3 9.6 0.00 0.00 0.00 59 1011.7
20260906011339 91 93 4.3 8.7 0.00 0.00 0.00 59 1011.6
20260906010330 92 73 3.5 13.0 0.00 0.00 0.00 58 1011.6
20260906005341 92 91 5.2 10.4 0.00 0.00 0.00 57 1011.5
20260906004332 93 79 4.3 10.4 0.00 0.00 0.00 57 1011.6
20260906003321 94 75 3.5 10.4 0.00 0.00 0.00 56 1011.6
20260906002332 94 96 7.0 13.9 0.00 0.00 0.00 56 1011.3
20260906001323 95 75 6.1 12.2 0.00 0.00 0.00 54 1011.3
20260906000334 95 71 5.2 8.7 0.00 0.00 0.00 54 1011.4
20260905235325 95 59 6.1 12.2 0.00 0.00 0.00 53 1011.3
20260905234336 98 68 4.3 7.8 0.00 0.00 0.00 48 1011.1
20260905233347 99 135 0.9 4.3 0.00 0.00 0.00 45 1011.0